Regional Weather Roundup
Issued by NWS Little Rock, AR

Home | Current Version | Previous Version | Graphics & Text | Print | Product List | Glossary On
Versions: 1 2 3 4 5 6 7 8 9 10 11 12 13 14 15 16 17 18 19 20 21 22 23 24 25 26 27 28 29 30 31 32 33 34 35 36 37 38 39 40 41 42 43 44 45 46 47 48 49 50
000
ASUS44 KLZK 240605
RWRLZK

WEATHER ROUNDUP FOR ARKANSAS
NATIONAL WEATHER SERVICE LITTLE ROCK AR
100 AM CDT SUN JUL 24 2016

NOTE: "FAIR" INDICATES FEW OR NO CLOUDS BELOW 12,000 FEET WITH NO
SIGNIFICANT WEATHER AND/OR OBSTRUCTIONS TO VISIBILITY.

ARZ001-003-010-029-240700-
NORTHWEST ARKANSAS

CITY           SKY/WX    TMP DP  RH WIND       PRES   REMARKS
FAYETTEVILLE   CLEAR     78  72  81 SW5       29.97S
6HR MIN TEMP:  77; 6HR MAX TEMP:  91;

FORT SMITH     CLEAR     80  71  74 CALM      29.93S
6HR MIN TEMP:  80; 6HR MAX TEMP:  91;

HARRISON       CLEAR     77  70  79 SE7       29.98S
6HR MIN TEMP:  77; 6HR MAX TEMP:  92;

BENTONVILLE    CLEAR     81  72  74 SE7       29.99R
6HR MIN TEMP:  81; 6HR MAX TEMP:  95;

ROGERS         CLEAR     80  75  84 S5        29.99R HX  85
6HR MIN TEMP:  80; 6HR MAX TEMP:  92;

SILOAM SPGS    CLEAR     79  66  65 CALM      29.98R
6HR MIN TEMP:  79; 6HR MAX TEMP:  97;

HIGHFILL       CLEAR     79  75  87 SE6       29.98R
6HR MIN TEMP:  78; 6HR MAX TEMP:  94;

$$

ARZ004-005-016-240700-
NORTH CENTRAL ARKANSAS

CITY           SKY/WX    TMP DP  RH WIND       PRES   REMARKS
BATESVILLE     PTCLDY    75  70  83 CALM      29.95S
6HR MIN TEMP:  73; 6HR MAX TEMP:  82;

FLIPPIN        PTCLDY    79  70  73 E3        29.93S
6HR MIN TEMP:  79; 6HR MAX TEMP:  93;

MTN HOME       PTCLDY    76  71  85 CALM      29.96S
6HR MIN TEMP:  76; 6HR MAX TEMP:  93;

$$

ARZ040-041-240700-
WEST CENTRAL ARKANSAS

CITY           SKY/WX    TMP DP  RH WIND       PRES   REMARKS
MENA           CLOUDY    73  73 100 CALM      29.98F
MOUNT IDA      MOCLDY    75  74  96 CALM      29.94F FOG
6HR MIN TEMP:  75; 6HR MAX TEMP:  83;

$$

ARZ009-017-025-026-028-240700-
NORTHEAST ARKANSAS

CITY           SKY/WX    TMP DP  RH WIND       PRES   REMARKS
CORNING          N/A     77  75  94 S3        29.94F
JONESBORO      CLOUDY    77  74  90 CALM      29.94S
6HR MIN TEMP:  77; 6HR MAX TEMP:  85; 6HR PCP: TRACE;

NEWPORT        PTCLDY    77  75  93 SE3       29.95S
6HR MIN TEMP:  76; 6HR MAX TEMP:  84;

WALNUT RIDGE   CLOUDY    79  73  83 S3        29.94S
6HR MIN TEMP:  79; 6HR MAX TEMP:  88;

BLYTHEVILLE    PTCLDY    79  76  90 CALM      29.96R
6HR MIN TEMP:  79; 6HR MAX TEMP:  88;

$$

ARZ022-023-033-042-044-240700-
CENTRAL ARKANSAS

CITY           SKY/WX    TMP DP  RH WIND       PRES   REMARKS
LITTLE ROCK    MOCLDY    77  71  82 S3        29.94F
6HR MIN TEMP:  77; 6HR MAX TEMP:  80; 6HR PCP: TRACE;

N LITTLE ROCK    N/A     76  71  86 CALM      29.91F
6HR MIN TEMP:  75; 6HR MAX TEMP:  78;

JACKSONVILLE   MOCLDY    76  75  99 SE3       29.93F
6HR MIN TEMP:  75; 6HR MAX TEMP:  78;

SEARCY         PTCLDY    74  73  97 S3        29.96R
6HR MIN TEMP:  74; 6HR MAX TEMP:  78;

HOT SPRINGS    CLOUDY    78  73  84 CALM      29.95F
6HR MIN TEMP:  76; 6HR MAX TEMP:  79; 6HR PCP: TRACE;

RUSSELLVILLE   MOCLDY    78  74  87 CALM      29.93F
6HR MIN TEMP:  77; 6HR MAX TEMP:  89;

$$

ARZ036-240700-
EAST ARKANSAS

CITY           SKY/WX    TMP DP  RH WIND       PRES   REMARKS
WEST MEMPHIS   CLOUDY    76  73  91 S3        29.93F
6HR MIN TEMP:  76; 6HR MAX TEMP:  82;

$$

ARZ050-053-066-070-073-240700-
SOUTHWEST ARKANSAS

CITY           SKY/WX    TMP DP  RH WIND       PRES   REMARKS
CAMDEN         CLEAR     72  68  88 CALM      29.95R
TEXARKANA      PTCLDY    74  73  97 SE3       29.94S
6HR MIN TEMP:  74; 6HR MAX TEMP:  78; 6HR PCP:  0.04;

EL DORADO      CLEAR     73  72  96 CALM      29.94F
6HR MIN TEMP:  73; 6HR MAX TEMP:  82;

DE QUEEN       CLEAR     73  73 100 CALM      29.93S FOG
6HR MIN TEMP:  73; 6HR MAX TEMP:  82; 6HR PCP: TRACE;

$$

ARZ056-057-069-240700-
SOUTHEAST ARKANSAS

CITY           SKY/WX    TMP DP  RH WIND       PRES   REMARKS
PINE BLUFF     CLOUDY    74  72  93 CALM      29.95S
6HR MIN TEMP:  74; 6HR MAX TEMP:  76; 6HR PCP: TRACE;

STUTTGART      MOCLDY    77  70  78 CALM      29.95S
6HR MIN TEMP:  75; 6HR MAX TEMP:  81;

MONTICELLO     CLEAR     76  73  91 CALM      29.95R
6HR MIN TEMP:  76; 6HR MAX TEMP:  80; 6HR PCP:  0.01;


$$





USA.gov is the U.S. government's official web portal to all federal, state and local government web resources and services.